Weather History for St. George, AK

Change the Weather History Date:

Tuesday, January 15, 2013

  Actual Average Record
Temperature  
Mean Temperature 23 °F -  
Max Temperature 28 °F 30 °F 41 °F (2005)
Min Temperature 16 °F 24 °F 10 °F (1998)
Degree Days  
Heating Degree Days 42    
Moisture  
Dew Point 18 °F    
Average Humidity 74    
Maximum Humidity 85    
Minimum Humidity 61    
Precipitation  
Precipitation 0.00 in - - ()
Sea Level Pressure  
Sea Level Pressure 30.18 in    
Wind  
Wind Speed 9 mph (NE)    
Max Wind Speed 16 mph    
Max Gust Speed -    
Visibility 10 miles    
Events      
Averages and records for this station are not official NWS values.
T = Trace of Precipitation, MM = Missing Value Source: NWS Daily Summary

Daily Weather History Graph

Daily Weather History Graph

Search for Another Location

Airport:

Trip Planner

Search our weather history database for the weather conditions in past years. The results will help you decide how hot, cold, wet, or windy it might be!

Date:

Astronomy

Jan. 15, 2013 Rise Set
Actual Time 10:42 AM AKST 6:14 PM AKST
Civil Twilight 9:57 AM AKST 7:00 PM AKST
Nautical Twilight 9:09 AM AKST 7:48 PM AKST
Astronomical Twilight 8:23 AM AKST 8:33 PM AKST
Moon 11:51 AM AKST (1/15) No Moon Set
Length of Visible Light 9h 03m
Length of Day
7h 32m
Waxing Crescent, 20% of the Moon is Illuminated
Jan 15
Waxing Crescent
Jan 18
First Quarter
Jan 26
Full
Feb 3
Last Quarter
Feb 9
New

Hourly Weather History & Observations

Time (AKST) Temp. Windchill Dew Point Humidity Pressure Visibility Wind Dir Wind Speed Gust Speed Precip Events Conditions
12:53 AM 28.0 °F 21.7 °F 24.1 °F 85% 29.99 in 10.0 mi ENE 5.8 mph - N/A   Overcast
1:53 AM 27.0 °F 20.5 °F 23.0 °F 85% 30.00 in 10.0 mi ENE 5.8 mph - N/A   Overcast
3:53 AM 28.9 °F 20.4 °F 23.0 °F 78% 30.03 in 10.0 mi North 9.2 mph - N/A   Overcast
4:53 AM 28.9 °F 22.8 °F 21.9 °F 75% 30.05 in 10.0 mi North 5.8 mph - N/A   Overcast
5:53 AM 28.0 °F 20.8 °F 21.9 °F 78% 30.08 in 10.0 mi NNE 6.9 mph - N/A   Clear
6:53 AM 26.1 °F 17.6 °F 19.9 °F 78% 30.09 in 10.0 mi North 8.1 mph - N/A   Clear
7:53 AM 25.0 °F 17.1 °F 19.9 °F 81% 30.10 in 10.0 mi North 6.9 mph - N/A   Clear
8:53 AM 27.0 °F 18.7 °F 19.9 °F 75% 30.11 in 10.0 mi North 8.1 mph - N/A   Clear
9:53 AM 24.1 °F 13.7 °F 15.1 °F 69% 30.14 in 10.0 mi North 10.4 mph - N/A   Clear
10:53 AM 25.0 °F 16.3 °F 15.1 °F 66% 30.16 in 10.0 mi North 8.1 mph - N/A   Partly Cloudy
11:53 AM 27.0 °F 18.7 °F 15.1 °F 61% 30.17 in 10.0 mi North 8.1 mph - N/A   Clear
12:53 PM 25.0 °F 18.1 °F 17.1 °F 72% 30.19 in 10.0 mi NNE 5.8 mph - N/A   Clear
1:53 PM 25.0 °F 14.8 °F 17.1 °F 72% 30.19 in 10.0 mi NNE 10.4 mph - N/A   Clear
2:53 PM 25.0 °F 16.3 °F 16.0 °F 69% 30.20 in 10.0 mi NNE 8.1 mph - N/A   Clear
3:53 PM 26.1 °F 15.6 °F 19.0 °F 75% 30.22 in 10.0 mi NNE 11.5 mph - N/A   Clear
4:53 PM 25.0 °F 13.6 °F 16.0 °F 69% 30.24 in 10.0 mi NNE 12.7 mph - N/A   Clear
5:53 PM 25.0 °F 14.2 °F 16.0 °F 69% 30.24 in 10.0 mi NE 11.5 mph - N/A   Clear
6:53 PM 25.0 °F 12.2 °F 15.1 °F 66% 30.24 in 10.0 mi NE 16.1 mph - N/A   Clear
7:53 PM 25.0 °F 12.6 °F 16.0 °F 69% 30.23 in 10.0 mi NE 15.0 mph - N/A   Clear
8:53 PM 26.1 °F 14.0 °F 18.0 °F 71% 30.25 in 10.0 mi NE 15.0 mph - N/A   Scattered Clouds
9:41 PM 26.6 °F 16.2 °F 19.4 °F 74% 30.29 in 10.0 mi ENE 11.5 mph - N/A   Mostly Cloudy
9:53 PM 24.1 °F 12.0 °F 17.1 °F 75% 30.25 in 10.0 mi ENE 13.8 mph - N/A   Scattered Clouds
10:00 PM 24.8 °F 13.4 °F 17.6 °F 74% 30.29 in 10.0 mi ENE 12.7 mph - N/A   Mostly Cloudy
10:09 PM 23.0 °F 11.7 °F 15.8 °F 74% 30.29 in 10.0 mi East 11.5 mph - N/A   Scattered Clouds
10:53 PM 18.0 °F 5.4 °F 12.9 °F 81% 30.28 in 10.0 mi East 11.5 mph - N/A   Partly Cloudy
11:53 PM 16.0 °F 2.3 °F 12.0 °F 84% 30.28 in 10.0 mi ENE 12.7 mph - N/A   Clear